TimeEST,TemperatureF,Dew PointF,Humidity,Sea Level PressureIn,VisibilityMPH,Wind Direction,Wind SpeedMPH,Gust SpeedMPH,PrecipitationIn,Events,Conditions,WindDirDegrees,DateUTC
12:15 AM,28.0,10.9,49,30.51,10.0,NNW,11.5,-,N/A,,Mostly Cloudy,340,2013-01-25 05:15:00
12:35 AM,27.9,10.4,48,30.49,10.0,North,10.4,18.4,N/A,,Scattered Clouds,350,2013-01-25 05:35:00
12:55 AM,27.9,11.1,50,30.50,10.0,North,12.7,18.4,N/A,,Clear,360,2013-01-25 05:55:00
1:15 AM,27.9,11.5,50,30.49,10.0,NNW,9.2,17.3,N/A,,Clear,340,2013-01-25 06:15:00
1:35 AM,27.5,11.8,52,30.48,10.0,North,8.1,-,N/A,,Clear,350,2013-01-25 06:35:00
1:55 AM,27.5,12.9,54,30.48,10.0,NNW,10.4,-,N/A,,Clear,340,2013-01-25 06:55:00
2:15 AM,27.5,13.5,56,30.49,10.0,NNW,9.2,16.1,N/A,,Clear,340,2013-01-25 07:15:00
2:35 AM,27.5,13.8,56,30.49,10.0,NNW,8.1,-,N/A,,Scattered Clouds,340,2013-01-25 07:35:00
2:55 AM,27.7,14.7,58,30.49,10.0,North,5.8,-,N/A,,Scattered Clouds,350,2013-01-25 07:55:00
3:15 AM,27.7,15.4,60,30.49,10.0,North,6.9,-,N/A,,Scattered Clouds,350,2013-01-25 08:15:00
3:35 AM,28.0,15.8,60,30.49,10.0,NNW,3.5,-,N/A,,Scattered Clouds,340,2013-01-25 08:35:00
3:55 AM,28.0,16.2,61,30.49,10.0,NNW,5.8,-,N/A,,Mostly Cloudy,340,2013-01-25 08:55:00
4:15 AM,28.0,16.5,62,30.49,10.0,NNW,5.8,-,N/A,,Mostly Cloudy,340,2013-01-25 09:15:00
4:35 AM,27.9,16.5,62,30.48,10.0,North,5.8,-,N/A,,Scattered Clouds,350,2013-01-25 09:35:00
4:55 AM,27.5,16.9,64,30.49,10.0,NNW,3.5,-,N/A,,Clear,340,2013-01-25 09:55:00
5:15 AM,27.5,17.1,65,30.49,10.0,NNW,3.5,-,N/A,,Clear,340,2013-01-25 10:15:00
5:35 AM,27.5,17.1,65,30.48,10.0,North,5.8,-,N/A,,Clear,350,2013-01-25 10:35:00
5:55 AM,27.5,17.6,66,30.49,10.0,NNW,4.6,-,N/A,,Scattered Clouds,340,2013-01-25 10:55:00
6:15 AM,27.5,18.0,67,30.49,10.0,NNW,3.5,-,N/A,,Scattered Clouds,330,2013-01-25 11:15:00
6:35 AM,27.5,18.1,68,30.49,10.0,NNW,5.8,-,N/A,,Scattered Clouds,340,2013-01-25 11:35:00
6:55 AM,27.9,18.5,68,30.49,10.0,NNW,5.8,-,N/A,,Scattered Clouds,340,2013-01-25 11:55:00
7:15 AM,27.9,18.9,69,30.48,10.0,North,3.5,-,N/A,,Clear,350,2013-01-25 12:15:00
7:35 AM,28.4,19.4,69,30.50,10.0,North,3.5,-,N/A,,Clear,350,2013-01-25 12:35:00
7:55 AM,29.3,20.3,69,30.48,10.0,North,5.8,-,N/A,,Clear,350,2013-01-25 12:55:00
8:35 AM,30.2,21.2,69,30.47,10.0,North,6.9,-,N/A,,Clear,360,2013-01-25 13:35:00
8:55 AM,30.9,21.7,69,30.47,10.0,North,5.8,-,N/A,,Clear,350,2013-01-25 13:55:00
9:15 AM,30.9,21.9,69,30.46,10.0,North,8.1,-,N/A,,Clear,350,2013-01-25 14:15:00
9:35 AM,31.3,22.1,69,30.46,10.0,NNW,5.8,-,N/A,,Clear,340,2013-01-25 14:35:00
9:55 AM,31.8,22.5,68,30.45,10.0,North,8.1,-,N/A,,Clear,360,2013-01-25 14:55:00
10:15 AM,31.8,22.3,68,30.45,10.0,North,4.6,-,N/A,,Clear,350,2013-01-25 15:15:00
10:35 AM,32.4,22.8,68,30.42,10.0,North,3.5,-,N/A,,Clear,360,2013-01-25 15:35:00
10:55 AM,32.5,23.0,68,30.40,10.0,NNE,3.5,-,N/A,,Clear,20,2013-01-25 15:55:00
11:15 AM,33.1,23.5,68,30.41,10.0,NW,3.5,-,N/A,,Clear,320,2013-01-25 16:15:00
11:35 AM,33.8,23.9,67,30.42,10.0,NW,5.8,-,N/A,,Clear,320,2013-01-25 16:35:00
11:55 AM,33.3,24.3,70,30.40,10.0,WNW,9.2,-,N/A,,Clear,290,2013-01-25 16:55:00
12:15 PM,32.9,24.4,71,30.38,10.0,NW,4.6,-,N/A,,Scattered Clouds,310,2013-01-25 17:15:00
12:35 PM,33.1,24.1,70,30.32,10.0,Calm,Calm,-,N/A,,Mostly Cloudy,0,2013-01-25 17:35:00
12:55 PM,33.3,24.6,71,30.33,10.0,Calm,Calm,-,N/A,,Scattered Clouds,0,2013-01-25 17:55:00
1:15 PM,34.2,24.8,69,30.33,10.0,Calm,Calm,-,N/A,,Overcast,0,2013-01-25 18:15:00
1:35 PM,33.8,23.2,65,30.30,10.0,Calm,Calm,-,N/A,,Overcast,0,2013-01-25 18:35:00
1:55 PM,33.8,24.1,68,30.28,10.0,Calm,Calm,-,N/A,,Overcast,0,2013-01-25 18:55:00
2:15 PM,33.3,24.8,71,30.27,10.0,Calm,Calm,-,N/A,,Overcast,0,2013-01-25 19:15:00
2:35 PM,33.1,24.8,72,30.26,10.0,Calm,Calm,-,N/A,,Overcast,0,2013-01-25 19:35:00
2:55 PM,33.1,24.8,72,30.24,10.0,Calm,Calm,-,N/A,,Overcast,0,2013-01-25 19:55:00
3:15 PM,33.1,25.2,73,30.23,10.0,North,3.5,-,N/A,,Overcast,10,2013-01-25 20:15:00
3:35 PM,33.1,25.9,75,30.26,5.0,NNW,5.8,-,N/A,Snow,Light Snow,340,2013-01-25 20:35:00
3:55 PM,31.6,28.4,88,30.26,1.8,Calm,Calm,-,N/A,Snow,Light Snow,0,2013-01-25 20:55:00
4:15 PM,31.6,29.3,91,30.22,4.0,Calm,Calm,-,N/A,,Overcast,0,2013-01-25 21:15:00
4:35 PM,31.5,29.3,92,30.19,4.0,Calm,Calm,-,N/A,,Overcast,0,2013-01-25 21:35:00
4:55 PM,31.1,29.3,93,30.19,1.8,Calm,Calm,-,N/A,Snow,Light Snow,0,2013-01-25 21:55:00
5:15 PM,30.9,29.7,95,30.17,2.0,Calm,Calm,-,N/A,Snow,Light Snow,0,2013-01-25 22:15:00
5:35 PM,30.9,30.0,96,30.15,1.5,Calm,Calm,-,N/A,Snow,Light Snow,0,2013-01-25 22:35:00
5:55 PM,31.3,30.4,96,30.14,4.0,Calm,Calm,-,N/A,,Overcast,0,2013-01-25 22:55:00
6:15 PM,31.8,30.9,96,30.13,7.0,NNE,4.6,-,N/A,,Overcast,20,2013-01-25 23:15:00
6:35 PM,32.0,31.1,96,30.13,4.0,North,5.8,-,N/A,,Overcast,360,2013-01-25 23:35:00
6:55 PM,32.0,31.1,96,30.12,4.0,North,4.6,-,N/A,,Overcast,10,2013-01-25 23:55:00
7:15 PM,32.0,30.9,96,30.12,4.0,NNW,4.6,-,N/A,,Overcast,330,2013-01-26 00:15:00
7:35 PM,32.0,31.1,96,30.13,3.0,NNW,4.6,-,N/A,,Overcast,340,2013-01-26 00:35:00
7:55 PM,32.0,31.5,98,30.14,2.0,North,8.1,-,0.02,,Overcast,350,2013-01-26 00:55:00
8:15 PM,32.0,30.9,96,30.12,2.0,NNW,6.9,-,0.01,,Overcast,340,2013-01-26 01:15:00
8:35 PM,32.0,31.1,96,30.12,3.0,North,9.2,-,0.01,,Overcast,350,2013-01-26 01:35:00
8:55 PM,31.8,30.7,96,30.11,2.5,NNW,3.5,-,0.01,,Overcast,340,2013-01-26 01:55:00
9:15 PM,31.6,30.7,96,30.10,3.0,NNW,3.5,-,N/A,,Overcast,340,2013-01-26 02:15:00
9:35 PM,31.6,30.7,96,30.09,7.0,Calm,Calm,-,N/A,,Overcast,0,2013-01-26 02:35:00
9:55 PM,31.8,31.1,97,30.09,7.0,Calm,Calm,-,N/A,,Overcast,0,2013-01-26 02:55:00
10:15 PM,32.0,31.1,96,30.10,10.0,NW,3.5,-,N/A,,Overcast,320,2013-01-26 03:15:00
10:35 PM,32.0,31.1,96,30.11,10.0,NW,5.8,-,N/A,,Overcast,320,2013-01-26 03:35:00
10:55 PM,32.0,31.1,96,30.10,10.0,WNW,4.6,-,N/A,,Overcast,300,2013-01-26 03:55:00
11:15 PM,32.0,31.1,96,30.11,10.0,WNW,4.6,-,N/A,,Overcast,290,2013-01-26 04:15:00
11:35 PM,32.0,31.1,96,30.10,10.0,WNW,3.5,-,N/A,,Overcast,290,2013-01-26 04:35:00
11:55 PM,32.0,31.3,97,30.11,10.0,West,5.8,-,N/A,,Overcast,280,2013-01-26 04:55:00